星链-32013 (STARLINK-32013 )

导读 | 豆包AI

STARLINK-32013是美国SpaceX星链互联网卫星项目的卫星之一,于2024年6月23日发射升空,属于星链第二代低轨卫星,旨在为全球偏远、无网络覆盖地区提供高速低延迟互联网服务,其加入扩充了星链低轨星座规模,提升了全球网络覆盖能力与服务稳定性。

基本信息
目录编号:
60103
目录名称:
STARLINK-32013
国际标识:
2024-117N
轨道中心:
EARTH
卫星名称:
星链-32013
卫星全名:
星链-32013 (STARLINK-32013 )
卫星状态:
在轨 (已飞行630 天)
发射日期:
2024-06-23 UTC
国别 :
美国 (US)
星等 :
--
轨道信息
数据来源 国际轨道数据
星历时间: 2026-03-15T10:34:08+0800
15小时前
查看轨道信息
半长轴: 6853.425km
偏心率: 0.0001252
轨道倾角: 53.162°
近地点辐角 76.924°
升交点赤经 12.122°
平近点角 283.190°
近地点: 474.429km
远地点: 476.147km
周期: 94.107分钟
每日圈数: 15.301758
详细信息
固有亮度:
5
最大亮度:
1.5
卫星平台:
Starlink v2.0 mini
覆盖范围:
全球
运营商:
太空探索技术公司
运营商所在国:
美国
制造商(研发单位):
太空探索技术公司
制造商所在国:
美国
使用方式:
暂无
卫星简介
星链(Starlink)计划是由太空探索技术公司(SpaceX)提出的一个巨型低轨卫星互联网星座项目,计划在2019年至2024年间在太空搭建由约1.2万颗卫星组成的“星链”网络,其中1584颗将部署在地球上空550千米处的近地轨道,并从2020年开始工作。该卫星仍在工作。
2D轨道图
3D轨道图
轨道高度分析图
轨道倾角分析图
轨道综合分析图
查看轨道综合分析图